| time (UTC) | temp C | wind direction | speed KPH | gust KPH | rain 1hr cm | rain 24hr cm | rain mn cm | humidity % | barometer mb |
| 20260504234508 | 19 | 203 | 0.0 | 3.2 | 0.00 | 0.00 | 0.00 | 62 | 1012.5 |
| 20260504233006 | 20 | 207 | 1.6 | 3.2 | 0.00 | 0.00 | 0.00 | 58 | 1012.3 |
| 20260504231503 | 21 | 171 | 3.2 | 8.0 | 0.00 | 0.00 | 0.00 | 55 | 1012.5 |
| 20260504230002 | 21 | 198 | 3.2 | 12.9 | 0.00 | 0.00 | 0.00 | 54 | 1012.5 |
| 20260504224559 | 20 | 202 | 4.8 | 14.5 | 0.00 | 0.00 | 0.00 | 52 | 1012.3 |
| 20260504223102 | 20 | 183 | 11.3 | 20.9 | 0.00 | 0.00 | 0.00 | 50 | 1012.5 |
| 20260504221555 | 21 | 177 | 8.0 | 20.9 | 0.00 | 0.00 | 0.00 | 48 | 1012.4 |
| 20260504220052 | 21 | 188 | 9.7 | 20.9 | 0.00 | 0.00 | 0.00 | 49 | 1012.4 |
| 20260504214601 | 21 | 214 | 9.7 | 16.1 | 0.00 | 0.00 | 0.00 | 48 | 1012.6 |
| 20260504213051 | 21 | 162 | 4.8 | 17.7 | 0.00 | 0.00 | 0.00 | 48 | 1012.6 |
| 20260504211549 | 21 | 192 | 8.0 | 22.5 | 0.00 | 0.00 | 0.00 | 47 | 1012.6 |
| 20260504210043 | 21 | 146 | 4.8 | 20.9 | 0.00 | 0.00 | 0.00 | 47 | 1012.5 |
| 20260504204541 | 22 | 198 | 8.0 | 17.7 | 0.00 | 0.00 | 0.00 | 44 | 1012.7 |
| 20260504203142 | 22 | 212 | 4.8 | 12.9 | 0.00 | 0.00 | 0.00 | 44 | 1012.4 |
| 20260504201539 | 23 | 196 | 4.8 | 16.1 | 0.00 | 0.00 | 0.00 | 37 | 1012.7 |
| 20260504200032 | 23 | 179 | 4.8 | 9.7 | 0.00 | 0.00 | 0.00 | 37 | 1012.9 |
| 20260504194531 | 23 | 220 | 6.4 | 11.3 | 0.00 | 0.00 | 0.00 | 37 | 1013.0 |
| 20260504193026 | 23 | 217 | 1.6 | 14.5 | 0.00 | 0.00 | 0.00 | 38 | 1013.3 |
| 20260504191525 | 23 | 166 | 3.2 | 16.1 | 0.00 | 0.00 | 0.00 | 39 | 1013.5 |
| 20260504190020 | 22 | 206 | 1.6 | 9.7 | 0.00 | 0.00 | 0.00 | 41 | 1013.7 |
| 20260504184519 | 22 | 160 | 4.8 | 11.3 | 0.00 | 0.00 | 0.00 | 42 | 1014.0 |
| 20260504183014 | 22 | 254 | 1.6 | 9.7 | 0.00 | 0.00 | 0.00 | 40 | 1014.1 |
| 20260504181515 | 22 | 181 | 3.2 | 9.7 | 0.00 | 0.00 | 0.00 | 41 | 1014.4 |
| 20260504180009 | 22 | 231 | 4.8 | 12.9 | 0.00 | 0.00 | 0.00 | 38 | 1014.4 |
| 20260504174505 | 22 | 205 | 3.2 | 19.3 | 0.00 | 0.00 | 0.00 | 37 | 1014.5 |
| 20260504173002 | 22 | 356 | 3.2 | 16.1 | 0.00 | 0.00 | 0.00 | 38 | 1014.8 |
| 20260504171610 | 21 | 212 | 4.8 | 11.3 | 0.00 | 0.00 | 0.00 | 39 | 1015.0 |
| 20260504081547 | 11 | 203 | 3.2 | 8.0 | 0.00 | 0.00 | 0.00 | 62 | 1017.7 |
| 20260504050008 | 8 | 307 | 0.0 | 0.0 | 0.00 | 0.00 | 0.00 | 64 | 1018.0 |
| 20260504044505 | 8 | 307 | 0.0 | 0.0 | 0.00 | 0.00 | 0.00 | 64 | 1018.0 |
| 20260504043003 | 8 | 307 | 0.0 | 0.0 | 0.00 | 0.00 | 0.00 | 66 | 1018.1 |
| 20260504041557 | 8 | 307 | 0.0 | 0.0 | 0.00 | 0.00 | 0.00 | 63 | 1018.1 |
| 20260504040054 | 8 | 307 | 0.0 | 0.0 | 0.00 | 0.00 | 0.00 | 63 | 1018.1 |
| 20260504034552 | 7 | 307 | 0.0 | 0.0 | 0.00 | 0.00 | 0.00 | 66 | 1017.9 |
| 20260504033057 | 6 | 307 | 0.0 | 0.0 | 0.00 | 0.00 | 0.00 | 72 | 1017.9 |
| 20260504031559 | 6 | 307 | 0.0 | 0.0 | 0.00 | 0.00 | 0.00 | 76 | 1017.7 |
| 20260504030049 | 6 | 307 | 0.0 | 0.0 | 0.00 | 0.00 | 0.00 | 78 | 1017.6 |
| 20260504024556 | 6 | 307 | 0.0 | 0.0 | 0.00 | 0.00 | 0.00 | 75 | 1017.6 |
| 20260504023045 | 7 | 307 | 0.0 | 0.0 | 0.00 | 0.00 | 0.00 | 73 | 1017.6 |
| 20260504021550 | 7 | 307 | 0.0 | 0.0 | 0.00 | 0.00 | 0.00 | 73 | 1017.6 |
| 20260504020047 | 7 | 307 | 0.0 | 0.0 | 0.00 | 0.00 | 0.00 | 70 | 1017.5 |
| 20260504014538 | 8 | 307 | 0.0 | 0.0 | 0.00 | 0.00 | 0.00 | 70 | 1017.4 |
| 20260504013045 | 8 | 307 | 0.0 | 0.0 | 0.00 | 0.00 | 0.00 | 68 | 1017.3 |
| 20260504011534 | 8 | 307 | 0.0 | 0.0 | 0.00 | 0.00 | 0.00 | 66 | 1017.2 |
| 20260504010033 | 10 | 307 | 0.0 | 0.0 | 0.00 | 0.00 | 0.00 | 64 | 1017.2 |
| 20260504004541 | 10 | 307 | 0.0 | 0.0 | 0.00 | 0.00 | 0.00 | 62 | 1017.3 |
| 20260504003030 | 11 | 307 | 0.0 | 0.0 | 0.00 | 0.00 | 0.00 | 58 | 1017.0 |
| 20260504001528 | 12 | 307 | 0.0 | 0.0 | 0.00 | 0.00 | 0.00 | 53 | 1017.0 |
| 20260504000027 | 13 | 307 | 0.0 | 0.0 | 0.00 | 0.00 | 0.00 | 47 | 1016.8 |